Location: Skyline at Page Mill Rd.
(37.3150°N, 122.1872°W)
Time: 23:49:23
(UTC-07:00)

ISS - Visible Passes

Search period start: 06 July 2020 00:00
Search period end: 16 July 2020 00:00
Orbit: 417 x 421 km, 51.6° (Epoch: 07 July)

Date Brightness Start Highest point End Pass type
(mag) Time Alt. Az. Time Alt. Az. Time Alt. Az.
06 Jul -0.9 02:08:33 17° NNE 02:08:33 17° NNE 02:09:35 10° NE visible
06 Jul -0.6 03:43:21 10° NNW 03:43:56 10° NNW 03:44:30 10° N visible
07 Jul -0.9 02:55:19 13° NW 02:56:03 13° NNW 02:57:46 10° N visible
08 Jul -0.8 02:09:07 16° N 02:09:07 16° N 02:10:37 10° NNE visible
09 Jul -0.5 01:22:51 13° NNE 01:22:51 13° NNE 01:23:17 10° NNE visible
10 Jul -0.4 02:09:37 10° NNW 02:10:14 10° NNW 02:10:50 10° N visible
10 Jul -0.7 05:24:08 10° NNW 05:26:22 16° NNE 05:28:36 10° ENE visible
11 Jul -0.4 01:22:51 13° N 01:22:51 13° N 01:24:02 10° N visible
11 Jul -0.5 04:36:59 10° N 04:38:29 12° NNE 04:39:59 10° NE visible
12 Jul -0.5 00:36:04 13° N 00:36:04 13° N 00:36:50 10° NNE visible
12 Jul -1.8 05:25:01 10° NW 05:28:09 35° NNE 05:31:15 10° ESE visible
12 Jul -0.9 23:48:30 16° NNE 23:48:30 16° NNE 23:49:29 10° NNE visible
13 Jul -1.1 04:37:36 10° NNW 04:40:21 23° NNE 04:43:06 10° E visible
13 Jul -2.3 21:19:50 10° S 21:22:14 18° SE 21:24:39 10° E visible
13 Jul -2.4 22:55:37 10° WSW 22:58:49 40° NW 23:02:01 10° NE visible
14 Jul -0.1 00:35:42 10° NNW 00:36:21 10° NNW 00:37:00 10° N visible
14 Jul -0.6 03:50:16 10° NNW 03:52:29 16° NNE 03:54:43 10° ENE visible
14 Jul -3.8 05:26:16 10° NW 05:29:38 76° SW 05:32:58 10° SE visible
14 Jul -3.5 22:07:45 10° SW 22:11:05 71° NW 22:14:27 10° NE visible
14 Jul -0.4 23:46:38 10° NW 23:48:23 13° NNW 23:50:08 10° N visible
15 Jul -0.3 03:03:05 10° N 03:04:34 12° NNE 03:06:02 10° NE visible
15 Jul -3.1 04:38:37 10° NW 04:41:56 58° NE 04:45:14 10° ESE visible
15 Jul -3.8 21:20:06 10° SW 21:23:25 62° SE 21:26:44 10° NE visible
15 Jul -0.8 22:58:03 10° WNW 23:00:28 18° NNW 23:02:53 10° NNE visible
